SERVIS 2 DEB, 43394

Orbit data source: Space-Track

SERVIS 2 DEB, 43394 is space debris in SSO originally from a launch on Wed, 02 Jun 2010 UTC launched from the Plesetsk Missile And Space Complex (PKMTR). Debris objects in space refer to the collection of defunct objects orbiting the Earth. Examples of debris include non-operational satellites, rocket bodies, and fragments generated from explosions, collisions, or faulty payload assembly.

Loading next visibility...
Identifier
43394, 2010-023D
Orbit
SSO
Country
Flag of CISCIS
Related business
Manufacturer
MELCO
Mission
Spacecraft
Bus & Motor
Unknown
Mass
Unknown
Launch date (UTC)
2010-06-02 (16 years ago)
Launch vehicle
Unknown
Launch site
Plesetsk Missile And Space Complex (PKMTR)
Object type
Payload
Rocket body
Debris
Shape & HBR
Unknown shape, 0.1 m
Radar Cross Section
Small (<0.1 m²)

Expand to show TLE details & history
Last TLE update: 2 weeks ago

TLE from 2 weeks ago
0 SERVIS 2 DEB
1 43394U 10023D   26159.80121301  .00010431  00000-0  13807-1 0  9997
2 43394 100.5155 189.8469 0017216  69.2447 291.0533 13.60933122 96554
Epoch: 2026-06-08T19:13Z
TLE epoch observation values (Epoch: 2026-06-08T19:13:44.804Z)
Latitude
-0.00005°
Longitude
4.22737°
Altitude
1,030.509 km
Speed
7.339 km/s
True Right ascension
12h 39m 23s
True Declination
0° 00' 00"
Sunlit
Object was in daylight at epoch
Visualization orbit readout
Latitude
Unknown
Longitude
Unknown
Altitude
Unknown
Speed
Unknown
Apparent Right ascension
Unknown
Apparent Declination
Unknown
Sunlit
N/A
Visualization observer readout
Local Sidereal Time
21:37:42
Azimuth
Unknown
Elevation
Unknown
Doppler factor
Unknown
Orbital elements
Apogee altitude
1,042.387 km
Perigee altitude
1,016.88 km
Semi-major axis
7,407.77 km
Eccentricity
0.00172
Inclination
100.5155°
RAAN
189.8469°
Arg. of periapsis
69.2447°
True anomaly
290.86905°
Mean anomaly
291.0533°
Eccentric anomaly
290.96119°
Mean motion
3.40418 °/min
Orbital period
105.75 mins
BSTAR
0.013807
Loading maneuver chart data...
Computing Atmospheric mass density...
Loading historical data...
Loading historical data...
Loading historical data...
Loading historical data...
Loading historical data...
Loading historical data...
Loading historical data...
Other satellites on launch #23 in the year 2010 (2010-06-02 UTC)

Documentation

Showing up to 5 results
|